Wind_Speed
12 12 12 13 14 14 14 15 15 15 16 16 16 17 17 17 17 17 17 17 17 18 19 20 21 22 23 23 23 23 23 23 24 23 24 25 25 26 27 28 29 29 29 29 30 30 29 28 26 23 21 20 20 22 25 27 29 30 32 33 33 33 33 33 32 32 33 33 34 34 35 36 36 35 36 37 38 39 39 40 44 49 52 53 49
12 12 12 13 14 14 15 15 15 16 16 17 17 18 18 18 18 18 18 18 18 19 19 20 21 22 23 23 23 23 23 24 24 24 23 24 25 26 27 28 29 29 29 29 30 30 30 28 25 21 20 20 21 23 25 26 27 28 29 31 31 32 32 31 29 28 29 31 33 34 33 35 37 37 37 37 38 38 39 39 40 45 51 55 53
12 12 12 13 14 15 15 16 16 16 16 17 17 18 18 19 19 19 19 19 19 20 20 21 21 22 23 23 24 24 24 24 24 24 24 24 25 26 27 28 29 30 30 30 29 30 30 29 25 20 19 21 23 24 26 25 24 25 27 28 28 29 28 28 28 27 27 29 31 34 34 34 37 38 38 37 37 38 39 38 37 40 46 53 56
12 12 13 14 14 15 16 16 16 16 16 17 17 18 18 18 18 19 19 20 20 20 21 21 22 22 22 23 24 24 24 24 24 24 24 24 25 25 26 28 29 30 30 31 30 29 30 30 27 21 18 22 25 26 26 24 22 23 25 26 25 26 26 26 28 28 28 28 29 32 34 34 36 38 39 38 38 38 38 37 35 37 41 48 55
13 13 14 14 15 15 16 16 16 16 16 17 17 17 17 17 18 18 18 19 20 21 22 22 22 22 22 22 23 24 24 24 24 24 24 25 25 25 26 28 29 29 30 31 31 30 30 31 29 25 21 22 26 26 24 22 21 22 22 23 23 23 24 25 26 27 28 28 28 30 32 34 35 37 39 39 39 39 38 38 36 36 38 42 49
13 14 14 15 15 16 17 17 17 17 17 17 17 17 17 17 18 18 18 19 20 22 23 23 22 22 22 22 22 23 24 24 24 24 24 25 25 26 27 28 29 30 31 31 32 31 31 31 30 29 24 22 24 24 23 21 21 21 21 21 22 22 24 24 25 26 27 27 27 28 31 34 35 36 39 39 39 40 39 38 37 37 38 38 42
13 14 14 15 16 17 17 17 17 17 17 17 17 17 17 18 18 19 19 20 21 22 23 23 22 22 21 21 21 22 23 24 24 24 24 25 26 26 27 28 29 30 31 32 33 33 33 32 31 31 26 22 22 23 23 23 22 21 21 21 20 22 24 24 26 27 26 26 25 26 29 32 34 35 37 38 38 40 39 38 37 37 37 36 36
13 14 14 15 16 17 17 17 17 17 17 17 18 18 18 19 20 20 21 21 20 20 22 23 22 22 21 21 21 21 22 23 24 24 24 25 25 26 27 27 28 29 29 31 33 34 33 33 32 32 27 20 20 23 23 23 22 21 20 20 20 21 23 25 26 26 25 24 24 25 28 29 31 33 34 35 36 37 37 36 36 36 35 35 34
13 14 15 16 17 17 17 17 17 17 18 18 18 19 19 19 20 21 21 21 20 19 20 21 22 22 21 21 20 21 22 23 23 23 24 24 24 25 26 26 26 26 28 29 32 33 33 33 32 32 28 21 20 23 22 21 21 20 19 18 21 22 22 24 23 23 23 23 22 23 26 27 29 31 32 34 34 35 35 35 35 35 35 35 34
13 15 16 16 16 16 17 17 17 17 18 19 19 19 19 20 21 21 21 21 20 20 19 20 21 22 22 22 21 21 23 24 23 23 24 24 23 24 25 24 25 26 27 28 30 32 33 33 32 32 29 23 21 23 21 20 21 19 17 18 21 22 21 21 20 19 20 21 20 21 23 25 27 29 30 31 32 33 35 36 36 34 34 33 32
14 15 16 16 16 16 17 17 17 17 18 19 19 20 20 20 21 21 21 21 21 21 20 20 21 22 23 23 23 22 23 24 23 23 24 24 24 23 22 22 24 25 26 28 29 31 32 33 32 31 30 25 23 23 21 21 22 20 17 19 21 20 19 18 17 16 16 17 18 18 21 23 25 26 27 28 29 31 34 36 36 34 33 32 31
14 15 15 15 16 16 16 17 17 18 18 19 19 20 20 20 20 21 21 21 21 21 21 21 21 22 23 24 24 23 23 24 24 24 24 24 23 22 21 22 23 23 25 27 28 30 31 31 32 32 30 28 25 23 23 22 22 21 18 19 21 19 16 16 15 15 13 13 14 16 18 20 23 24 25 26 27 28 30 33 34 32 31 30 31
14 15 15 15 15 15 15 16 17 18 19 20 20 20 20 20 20 21 21 21 21 21 22 22 22 22 22 23 23 24 24 23 24 25 23 23 24 22 21 22 22 23 24 26 27 29 30 30 31 32 31 28 26 25 25 22 21 21 18 18 20 19 16 15 14 13 12 11 10 12 15 18 21 22 23 23 23 24 27 29 29 28 28 29 30
14 14 14 15 14 14 14 15 16 18 19 20 20 20 20 20 20 21 21 21 22 22 22 22 22 22 22 23 22 23 24 22 23 24 22 22 23 21 21 22 22 23 24 24 25 27 28 29 30 31 30 27 25 25 25 21 19 21 19 19 20 20 18 15 13 11 11 9 8 9 12 15 18 20 21 22 22 23 25 26 25 25 25 26 28
14 14 14 13 13 13 14 15 17 18 19 20 20 20 20 20 21 21 22 22 23 23 23 23 22 21 21 21 20 22 23 22 22 23 22 24 24 21 20 20 22 23 23 23 24 24 26 27 29 30 29 26 24 23 22 20 19 20 19 19 19 20 19 17 15 12 9 8 7 7 9 13 16 18 20 21 22 23 25 25 25 24 22 22 23
14 14 13 12 12 13 14 16 17 19 20 21 21 21 21 21 22 22 23 23 23 24 24 24 23 22 21 20 19 20 22 22 22 22 23 24 24 22 19 19 21 23 23 23 24 23 24 26 28 29 28 26 24 21 19 18 18 19 19 18 18 20 20 18 16 13 9 8 7 7 9 12 14 16 18 20 21 23 23 24 24 22 22 21 22
13 13 12 12 13 14 15 16 17 19 20 21 22 22 22 22 22 23 23 24 24 25 25 25 25 25 24 23 22 21 22 22 21 21 23 24 23 21 19 20 22 23 24 23 23 23 24 24 26 29 28 26 25 22 19 17 17 19 20 19 19 20 20 19 17 13 8 7 7 8 9 11 13 14 16 18 20 22 22 22 22 21 23 24 23
13 12 12 12 13 14 15 16 17 19 20 21 22 22 22 23 23 24 24 25 26 26 27 26 26 26 26 26 26 26 25 25 24 21 21 23 22 20 19 21 22 23 23 23 21 21 23 24 25 28 29 27 26 25 21 18 17 19 20 21 21 20 19 18 19 14 8 6 6 8 9 10 11 13 15 17 19 21 21 22 22 21 23 24 24
12 12 12 13 13 14 15 16 17 19 20 21 22 23 23 24 24 25 25 26 26 27 28 27 27 27 28 28 28 29 29 29 29 26 23 21 20 18 18 19 22 23 23 22 21 20 22 23 24 28 30 29 28 26 22 18 18 19 20 20 21 21 19 18 21 16 7 5 4 7 9 10 11 13 15 17 19 20 21 23 23 23 25 25 25
11 12 12 13 13 14 15 16 18 19 21 22 23 23 24 24 25 25 26 26 27 27 28 28 27 28 28 29 30 30 30 30 31 31 29 26 22 20 17 17 20 22 23 21 20 20 21 22 24 27 30 30 29 26 24 20 19 21 22 22 21 22 21 19 20 15 6 4 4 6 8 10 11 12 15 17 19 20 21 23 24 25 27 28 27
11 11 12 13 14 15 16 17 19 20 22 23 23 24 24 25 26 26 27 28 28 28 28 28 28 28 28 29 29 29 29 29 29 28 29 27 24 22 20 19 18 19 20 20 18 19 20 22 23 25 29 31 30 26 24 22 20 21 25 26 23 22 21 19 17 9 3 3 4 7 9 11 11 13 15 16 18 20 22 24 24 26 27 27 26
11 12 13 13 15 15 17 18 19 21 22 23 24 25 25 26 27 27 28 28 29 29 28 28 28 28 28 29 29 29 28 28 27 26 26 24 22 21 21 20 19 19 19 19 19 19 20 21 22 25 27 30 31 26 24 23 20 22 27 27 22 21 19 15 13 6 2 2 3 8 10 12 13 14 15 16 18 19 21 22 23 24 24 23 24
11 12 13 14 15 15 17 18 20 21 22 23 24 25 26 27 28 28 28 29 29 30 29 28 28 28 29 30 30 30 30 28 27 26 24 22 21 21 20 20 20 21 21 21 21 22 22 21 22 25 26 29 31 27 23 23 20 22 27 27 21 22 25 17 10 5 4 3 2 6 10 13 14 15 16 16 17 18 19 21 22 21 21 21 22
11 11 12 13 14 15 16 18 19 21 22 23 24 26 27 28 28 29 29 29 30 30 30 28 28 29 30 30 30 30 30 28 27 26 22 20 20 21 20 20 20 20 21 22 23 23 23 21 21 24 25 27 30 27 23 22 21 21 26 28 24 25 31 22 9 6 3 4 3 4 8 12 12 13 15 16 17 18 20 21 22 22 22 23 22
10 10 11 12 13 14 16 17 19 20 22 23 25 26 27 28 29 29 29 29 30 30 30 29 29 29 30 30 30 30 29 28 26 23 19 18 19 19 19 20 20 19 19 21 22 22 22 21 20 22 24 26 28 27 23 21 22 22 24 27 26 28 38 29 12 9 5 3 5 5 7 10 11 11 13 15 16 18 21 23 23 23 23 23 22
9 10 11 12 13 15 16 17 19 20 22 23 25 26 27 28 29 29 30 30 30 31 30 30 29 29 30 31 30 30 28 27 25 21 18 17 17 18 19 18 17 17 17 17 19 19 20 20 19 21 24 25 27 26 23 21 22 24 23 26 26 25 35 35 19 12 9 4 6 7 7 9 10 10 12 14 15 18 22 24 24 23 22 22 22
9 10 11 13 14 16 17 19 20 21 23 24 25 26 27 28 29 29 29 30 30 31 31 30 30 30 31 31 31 30 28 25 23 21 19 17 16 17 19 20 20 19 17 15 15 17 18 18 18 21 24 25 26 25 24 22 22 24 24 26 27 23 27 32 22 15 14 9 7 8 8 9 10 12 13 15 16 17 21 23 23 22 22 22 23
10 11 12 14 16 17 19 20 22 23 23 25 26 26 27 28 29 29 29 30 30 31 31 30 30 30 30 30 30 28 26 24 22 22 20 18 17 18 19 20 22 22 22 19 15 15 16 16 16 20 23 24 25 24 23 22 22 23 24 27 28 26 26 27 23 19 17 13 9 10 10 9 10 12 14 15 17 18 20 22 23 21 23 23 23
11 12 13 15 17 19 20 22 23 24 24 25 26 27 28 28 29 29 29 30 30 31 31 30 30 30 30 30 30 27 24 22 21 21 21 18 18 18 18 19 19 21 23 21 17 15 14 15 16 19 22 24 24 24 22 22 22 23 24 26 28 29 27 25 23 21 20 18 14 12 13 13 12 12 15 16 17 19 19 19 20 20 21 22 22
12 13 15 16 18 19 21 22 23 24 25 25 26 27 28 28 29 29 29 30 30 31 31 30 29 29 29 30 29 26 22 21 20 21 21 19 18 18 18 18 19 20 21 19 16 14 14 14 16 18 21 23 24 24 21 21 22 23 24 25 27 28 27 25 23 23 26 29 27 20 16 15 15 15 17 19 18 18 18 18 19 20 22 23 22
15 16 16 18 19 20 22 23 24 24 25 25 25 26 27 28 28 29 29 30 30 30 31 30 29 28 29 29 27 24 22 20 21 21 21 20 19 18 17 17 18 19 19 17 14 12 13 14 14 18 19 20 23 23 21 20 22 22 23 24 25 26 28 27 24 23 26 30 33 31 25 21 21 20 19 23 22 19 21 22 21 22 24 25 26
15 17 18 19 20 21 22 23 24 25 25 25 25 26 27 27 28 29 29 29 30 30 30 29 29 28 28 28 26 23 21 20 21 21 22 22 20 18 17 17 19 19 17 15 13 12 13 13 14 17 18 18 21 22 20 19 21 22 22 23 24 25 27 29 29 29 27 25 28 31 31 30 35 34 29 31 33 27 25 26 25 26 27 28 29
16 17 18 19 20 22 23 24 25 25 25 25 25 26 26 27 28 28 28 29 29 30 30 29 28 27 27 27 25 22 21 20 21 22 22 22 21 19 18 17 19 20 16 13 13 12 12 13 14 15 16 16 19 21 21 19 19 21 22 22 22 23 25 28 31 32 29 24 23 23 24 24 31 37 37 39 42 38 33 30 29 31 31 31 31
16 17 18 19 20 21 23 24 25 26 26 26 26 25 25 26 27 27 27 28 29 29 29 29 28 27 26 26 24 22 21 21 21 22 22 22 21 19 18 18 19 18 15 13 13 13 11 11 11 13 15 15 17 20 22 20 20 20 20 20 20 20 21 23 27 29 29 27 24 22 21 20 24 32 37 40 42 41 36 31 29 31 33 33 33
18 19 19 20 20 21 22 23 24 26 26 26 25 24 24 25 25 26 26 27 28 29 29 28 27 26 26 25 24 22 21 21 21 21 22 22 20 18 18 19 17 15 14 14 15 13 11 9 9 12 15 15 16 19 21 21 20 19 18 19 19 19 18 18 20 24 28 28 25 23 24 24 24 27 32 35 37 35 33 31 30 31 33 33 32
19 20 21 21 22 22 22 23 24 25 25 24 23 23 22 23 24 24 25 26 27 28 28 28 26 25 25 24 23 22 21 21 20 20 21 21 19 18 19 19 16 13 13 14 14 13 11 9 9 13 15 15 16 19 21 21 20 18 17 18 18 18 18 17 17 19 23 25 24 22 22 24 24 24 26 29 30 29 29 31 32 30 29 28 27
19 21 21 22 23 22 22 23 25 25 23 22 22 22 21 22 22 22 23 25 25 26 27 27 26 24 24 23 23 22 21 20 19 19 20 21 19 18 19 18 14 12 13 13 12 12 12 10 10 12 14 15 16 18 19 19 18 18 18 17 17 16 16 15 15 15 18 21 20 19 19 21 24 25 24 25 24 22 22 24 26 25 24 24 25
20 21 22 22 23 23 22 23 24 24 23 22 21 20 20 20 21 20 21 23 24 25 26 27 26 24 23 23 22 21 21 20 19 18 19 20 18 18 18 16 13 11 12 13 12 11 10 9 10 12 13 15 16 16 17 17 16 17 17 16 15 14 14 14 13 14 16 17 17 17 17 19 22 24 24 24 23 22 21 21 22 23 24 25 25
20 21 22 23 24 24 24 24 24 24 23 22 21 20 19 19 19 19 20 22 22 23 24 25 25 23 22 22 22 21 21 19 18 18 18 19 18 18 17 14 11 11 12 12 11 10 9 8 10 12 13 14 14 15 16 16 14 13 14 15 15 14 13 12 13 14 15 16 16 18 18 20 21 23 23 22 22 22 23 24 24 23 24 25 24
20 21 22 23 24 25 25 25 25 24 24 23 22 21 20 19 18 18 19 20 20 21 23 24 24 22 22 22 21 21 20 19 17 17 17 18 17 17 16 13 11 11 11 11 10 9 9 8 8 10 12 13 12 14 15 13 12 13 14 15 16 15 13 13 14 16 17 17 17 18 20 20 21 22 22 22 22 22 22 23 24 24 23 23 22
21 22 23 24 25 26 26 25 25 24 24 23 22 21 20 19 18 17 18 18 19 20 21 22 22 21 21 21 20 20 20 18 16 16 16 16 15 15 15 13 11 10 11 10 10 9 8 7 8 10 11 11 11 12 15 14 13 15 16 15 15 16 15 16 18 20 20 18 17 18 21 21 20 20 21 22 22 22 21 22 22 22 21 21 20
23 24 25 26 27 26 25 25 25 25 24 24 23 22 20 19 19 18 17 17 17 18 20 21 21 20 20 20 20 19 19 17 15 15 14 14 13 13 13 13 11 10 10 9 9 9 8 9 10 11 11 10 10 13 15 16 16 16 16 15 15 15 16 18 21 23 22 19 16 18 21 20 18 18 19 20 21 21 20 21 21 21 20 19 19
25 25 26 27 27 26 25 25 24 25 24 24 24 23 21 19 19 18 17 16 17 17 19 19 19 19 19 19 19 18 18 17 15 14 13 12 12 12 12 11 11 9 8 8 8 7 8 10 11 11 10 9 11 13 15 16 17 15 15 16 15 14 15 18 21 23 22 19 15 18 22 21 17 17 18 20 20 20 20 21 20 20 19 18 18
27 27 27 28 28 27 26 25 24 24 24 24 25 24 23 21 18 18 17 16 17 17 18 18 18 18 18 18 18 18 17 16 14 13 12 11 11 12 10 9 10 9 7 7 7 6 8 11 10 9 10 10 12 14 14 16 17 15 14 17 16 14 15 18 20 22 22 19 15 18 22 21 17 16 18 20 20 20 21 21 19 19 19 18 18
28 29 29 30 29 28 27 26 24 24 24 24 24 24 24 22 19 18 17 16 16 17 17 17 17 17 17 17 17 17 17 15 13 12 12 10 10 11 10 9 8 8 7 6 6 6 9 11 10 9 10 11 11 12 13 17 17 14 13 16 16 15 16 18 19 20 20 16 13 15 20 20 16 16 18 20 20 21 21 21 19 19 19 18 18
31 31 33 34 32 30 29 27 26 24 24 24 24 23 24 23 21 18 17 16 16 17 17 17 16 16 15 15 16 16 15 14 12 11 10 10 10 10 10 9 7 7 7 6 4 5 8 9 9 10 11 11 11 11 12 16 15 12 13 15 16 15 16 17 18 18 18 15 11 11 16 18 15 15 18 19 19 20 21 20 19 19 19 18 17
35 33 34 35 33 31 29 28 27 25 23 24 24 22 23 24 22 20 17 15 15 16 17 16 16 16 15 14 14 15 14 13 11 10 9 9 9 10 10 8 7 6 7 6 4 4 5 5 7 10 10 11 11 10 12 15 15 14 14 15 15 15 15 15 15 16 17 15 11 8 12 17 14 12 16 18 17 19 20 20 20 19 18 18 17
36 36 35 33 31 30 28 27 27 25 23 23 23 22 22 24 24 22 18 15 15 15 16 16 16 16 14 13 13 14 14 13 11 9 8 7 8 8 8 8 7 5 6 6 5 4 4 4 6 9 10 10 11 11 11 13 16 16 14 14 15 14 14 14 15 15 15 15 12 8 9 14 12 11 14 16 16 18 19 19 19 19 17 17 17
36 37 34 32 30 28 27 28 28 25 23 23 24 22 22 23 25 23 19 15 15 15 15 16 17 16 14 12 12 13 12 12 11 8 6 6 6 7 7 8 7 5 4 5 5 3 3 4 5 8 9 10 11 11 11 12 14 14 12 12 14 14 14 14 15 15 15 15 14 10 9 13 13 11 12 14 15 17 18 18 18 18 17 16 17
35 35 34 33 32 28 26 27 29 27 24 24 24 22 22 22 24 24 20 16 15 15 15 15 16 16 14 12 12 12 11 11 10 8 6 5 5 6 6 7 7 6 3 4 4 3 3 5 6 6 7 8 10 11 11 12 13 13 12 12 13 14 15 15 15 15 16 15 13 11 12 14 13 12 11 12 15 18 19 19 18 17 17 16 16
36 34 34 35 35 32 28 27 29 29 27 25 24 23 22 22 22 23 22 18 14 14 14 14 15 16 14 11 11 11 11 10 10 9 6 5 5 5 5 6 6 6 4 2 3 3 3 5 6 5 5 6 8 8 9 12 13 13 13 12 13 13 14 14 14 14 14 14 11 10 13 13 11 11 11 10 12 17 19 18 18 17 16 16 15
Wind_Direction
335 334 334 332 330 329 327 326 325 325 325 325 326 329 332 333 333 334 334 335 337 339 340 339 339 339 339 340 340 340 340 338 338 338 337 337 338 339 340 339 336 337 339 340 340 340 339 337 333 325 318 312 303 299 295 287 281 281 284 287 288 288 286 282 279 275 270 264 258 253 250 247 245 243 242 242 242 240 239 240 238 231 224 222 223
336 335 335 333 332 330 329 328 325 324 324 325 327 328 330 331 332 333 333 334 336 337 338 338 338 338 338 338 338 339 339 337 337 336 336 336 337 338 339 338 336 337 340 341 340 339 338 339 337 329 321 317 313 310 305 296 289 287 287 287 289 289 288 287 283 277 272 266 259 254 251 247 244 241 238 237 238 239 239 239 240 235 227 222 222
337 337 337 336 334 333 333 330 327 327 327 327 328 328 329 331 332 332 332 333 335 336 336 336 336 336 336 336 336 337 337 337 336 336 335 335 335 336 338 338 337 339 340 341 341 340 338 339 341 335 326 321 319 317 312 306 300 296 293 290 290 291 289 287 285 280 274 269 262 254 250 248 244 241 238 234 233 236 237 236 238 239 232 224 222
340 340 340 339 338 337 336 333 332 333 332 331 331 330 330 331 332 332 331 332 333 334 334 334 334 334 334 334 334 335 335 336 337 337 336 335 334 334 336 337 338 339 339 339 340 340 339 340 342 338 332 326 321 320 318 312 305 298 297 296 295 294 292 289 286 283 277 271 264 256 250 247 244 240 238 234 232 232 233 232 233 238 236 227 222
343 343 343 342 341 341 338 337 337 337 337 335 334 333 333 334 334 334 334 333 333 333 334 334 334 333 334 333 332 333 334 336 338 338 336 334 333 333 335 336 337 337 337 337 338 340 341 342 343 339 333 328 325 323 322 318 309 301 299 299 298 296 294 290 287 283 278 272 264 257 250 246 243 239 236 233 231 230 230 229 229 233 235 231 224
346 346 345 344 344 343 341 340 340 341 340 339 337 337 337 337 337 338 337 336 335 335 334 335 334 333 334 333 332 332 333 335 337 338 336 334 333 334 335 336 336 336 335 335 337 341 342 342 344 342 334 328 327 327 326 322 313 305 299 296 295 295 294 293 291 287 280 274 266 258 251 246 243 238 235 233 229 226 225 227 228 229 232 232 226
349 348 347 346 346 345 344 343 344 344 343 343 342 341 341 339 339 339 338 338 338 337 335 334 335 334 335 335 334 333 333 334 336 337 337 335 334 334 336 336 336 334 334 336 338 340 341 341 344 345 337 328 328 330 329 325 318 309 302 298 296 295 296 298 297 292 284 276 268 259 253 248 243 238 235 233 231 227 223 223 226 227 230 230 228
350 350 349 349 349 348 347 347 348 347 346 346 345 343 342 341 340 339 340 341 340 341 337 334 336 336 336 337 336 335 333 334 335 335 336 336 334 334 335 336 336 334 334 336 336 336 338 340 343 346 341 329 329 333 331 329 325 316 310 307 306 303 300 301 301 296 287 278 269 260 254 249 243 237 233 231 232 231 227 223 223 225 228 229 228
353 351 352 353 352 350 352 352 351 350 348 347 346 344 343 342 342 342 343 343 344 346 342 337 338 337 337 338 338 336 333 334 335 334 335 336 335 334 337 338 335 332 333 334 332 332 335 340 343 347 346 334 333 337 333 335 332 322 320 320 316 311 305 302 303 299 289 280 272 261 253 248 240 233 229 227 226 227 226 223 222 222 224 226 226
355 353 355 355 354 354 354 353 353 353 349 347 346 344 344 345 347 347 347 348 348 348 346 343 340 338 339 339 340 339 335 335 335 335 335 335 335 337 339 338 332 329 331 332 330 330 334 340 343 347 348 341 339 340 334 338 341 329 323 325 320 315 310 305 304 300 290 282 275 261 252 245 236 229 226 224 223 223 222 220 220 221 222 223 225
356 357 357 355 355 356 354 353 354 355 352 348 346 346 349 351 352 353 352 352 351 350 348 347 345 345 343 340 341 341 338 336 335 336 335 333 336 339 337 333 329 330 331 330 330 331 334 339 343 347 348 344 341 340 334 334 341 336 320 321 327 322 312 306 302 298 291 284 276 261 250 243 234 229 226 222 220 222 223 221 219 218 218 220 223
359 359 357 355 356 355 353 355 357 356 353 351 350 352 355 357 357 357 357 355 354 354 350 348 350 351 348 344 344 343 342 340 337 336 335 332 336 338 333 330 330 331 331 331 331 332 333 338 343 347 348 344 340 341 338 332 335 337 322 322 337 332 316 310 305 299 295 289 279 264 248 239 233 227 224 220 217 218 223 225 222 217 214 214 218
1 359 356 355 355 355 357 360 359 357 355 355 356 358 0 1 0 359 360 359 357 357 352 350 350 350 349 348 349 347 346 344 337 336 335 331 334 336 332 330 331 331 331 332 332 331 333 338 344 347 346 344 341 341 342 338 334 336 326 323 340 343 329 317 308 300 296 293 284 267 247 234 229 223 216 213 214 215 220 224 225 225 219 210 210
0 359 356 356 358 1 5 5 2 359 359 0 1 3 4 3 2 0 0 360 359 357 353 352 353 350 348 347 348 348 350 349 339 337 336 329 332 334 330 329 329 330 331 330 330 330 333 339 346 348 345 343 342 340 341 342 340 341 332 319 333 347 342 326 313 304 298 293 283 264 243 230 223 216 208 204 206 208 214 219 221 228 227 215 206
360 360 359 3 7 8 9 6 4 3 3 4 4 5 6 4 2 1 0 360 359 356 353 353 354 353 350 346 346 345 348 350 344 341 338 330 331 332 329 329 328 329 329 327 328 330 334 341 347 348 344 342 342 340 342 345 343 345 337 322 330 345 344 334 322 312 302 292 276 251 234 225 217 208 201 200 201 203 209 214 213 215 220 219 212
1 3 7 11 12 10 9 7 6 6 6 6 7 7 6 4 2 0 360 359 357 355 353 354 354 355 354 352 349 345 344 344 344 344 337 333 334 332 331 330 329 329 328 327 328 333 337 342 349 349 344 342 340 341 348 350 345 344 339 332 337 341 340 337 327 316 303 287 267 243 226 221 217 207 200 196 195 197 202 207 208 207 204 206 211
5 8 12 14 12 10 9 9 8 7 8 8 8 8 6 4 3 2 0 358 357 355 354 355 356 356 356 355 352 349 346 342 345 346 337 336 338 334 333 333 333 333 330 330 332 335 339 343 350 351 346 343 341 340 344 350 348 343 338 338 341 340 339 339 331 319 301 283 261 240 224 218 217 209 201 194 190 192 198 202 203 201 197 196 200
11 13 14 14 13 11 10 9 9 9 10 10 10 9 7 6 4 3 2 359 357 355 355 356 357 357 356 355 354 352 349 346 348 350 342 340 341 340 339 336 335 334 332 334 335 336 341 344 350 352 349 346 343 341 341 346 352 347 337 335 338 338 339 337 332 323 295 275 256 236 224 215 211 203 199 195 189 190 194 197 198 196 195 196 196
15 15 14 15 15 13 12 10 10 11 11 11 11 10 8 7 5 5 4 1 359 356 356 357 357 357 355 355 354 352 352 351 350 351 351 347 345 347 347 339 335 336 337 337 336 340 344 345 349 352 352 348 344 344 342 344 352 350 339 335 336 337 337 334 332 327 298 262 238 223 218 210 205 197 194 195 192 191 192 192 192 190 191 195 196
19 18 18 18 17 16 15 13 14 14 14 13 12 11 9 7 6 5 5 2 0 358 357 357 357 356 355 354 353 353 353 353 352 352 352 351 350 351 352 345 339 339 340 340 337 341 346 347 349 351 353 351 346 344 344 344 346 350 348 344 341 339 337 338 337 328 293 247 204 199 202 198 200 196 192 194 193 190 190 190 191 190 190 193 195
22 23 24 24 23 23 22 21 21 20 19 17 14 12 9 8 7 6 5 2 1 359 357 357 357 355 354 353 352 352 352 352 352 352 351 350 350 350 350 349 346 341 342 343 340 341 344 347 349 350 351 352 350 346 347 348 346 352 355 350 349 345 338 337 342 335 265 222 172 172 177 180 185 187 187 189 190 189 187 188 191 191 190 190 193
28 30 32 33 32 31 29 28 27 24 22 19 16 13 11 8 7 5 4 2 1 360 358 358 357 354 352 352 351 351 351 351 351 350 350 350 349 349 349 348 346 344 345 347 345 341 342 344 348 351 350 351 352 348 349 353 352 356 358 356 358 3 1 351 348 359 169 188 175 169 163 167 172 176 181 183 182 185 187 188 191 191 188 186 192
33 36 37 37 36 33 30 28 26 24 21 19 16 13 11 9 7 5 3 2 0 359 359 358 356 354 352 352 352 351 351 351 350 350 351 352 350 348 347 344 343 343 344 348 347 341 340 343 347 351 351 352 352 350 352 356 357 359 2 1 357 8 26 27 9 27 131 150 180 182 161 160 167 168 174 178 178 181 184 186 186 184 182 183 191
33 35 35 34 31 27 25 23 21 19 17 15 13 11 9 7 6 4 2 1 360 358 358 358 356 354 352 352 352 352 351 350 350 352 355 355 351 348 346 344 346 346 344 345 345 342 342 343 346 351 353 354 353 352 356 358 360 2 3 4 360 14 35 39 28 42 102 150 131 173 153 145 158 166 170 171 172 176 177 178 178 176 178 182 186
27 27 26 23 20 17 17 15 14 13 11 10 9 7 6 5 3 2 0 359 358 357 357 357 356 354 353 353 353 352 351 351 352 356 358 354 351 352 352 348 344 343 341 341 341 344 346 342 344 353 356 357 356 355 1 2 2 3 0 3 9 30 45 45 44 55 64 122 116 132 138 136 152 162 165 164 164 170 171 170 170 171 174 180 184
14 14 12 9 7 5 6 5 4 4 4 4 4 3 3 2 1 0 359 358 357 356 356 356 355 355 354 354 354 352 352 354 357 0 360 354 351 352 355 356 350 343 341 340 339 343 347 340 344 358 358 358 358 359 4 6 7 6 359 1 9 29 49 53 54 51 52 89 114 118 126 138 152 153 151 152 157 168 172 167 164 168 172 177 181
359 359 358 355 354 354 354 355 356 357 358 359 360 360 359 358 358 358 358 357 356 355 356 355 355 355 354 355 354 353 354 357 2 4 2 358 354 351 353 358 358 352 352 356 348 345 347 344 350 1 0 359 1 3 7 8 12 11 359 2 9 17 42 59 64 56 52 71 112 124 127 138 146 144 143 143 149 165 173 166 162 169 175 175 178
345 346 347 346 345 346 346 348 349 350 352 354 355 357 356 355 355 356 357 357 356 355 355 355 355 355 355 355 354 354 357 1 6 7 4 1 358 355 356 357 354 350 355 4 359 349 348 350 356 3 2 2 4 7 9 8 14 15 5 7 14 16 33 53 63 64 60 66 103 124 124 134 139 136 139 142 147 159 167 161 159 170 176 174 176
334 335 337 338 338 339 340 341 343 345 348 350 351 352 353 352 352 353 355 356 355 354 354 355 356 356 355 356 356 357 1 6 9 8 6 5 2 358 358 358 353 347 351 359 359 355 356 356 1 7 7 6 9 11 11 10 15 15 12 15 19 22 33 48 61 73 74 77 100 113 106 117 129 128 135 145 149 155 162 157 156 167 172 168 170
325 327 328 330 331 332 334 335 337 340 343 346 347 348 349 350 350 351 353 355 355 354 354 354 355 356 356 357 357 359 4 9 10 10 8 7 5 1 357 356 353 347 348 356 358 359 4 1 3 10 11 10 13 15 13 14 18 16 17 25 29 31 40 53 68 75 73 80 99 111 105 106 115 118 126 135 143 149 151 150 149 154 157 156 159
321 321 321 323 325 326 328 330 332 334 337 340 342 343 345 347 347 348 351 353 354 353 353 353 355 356 357 358 358 0 5 8 9 10 9 7 5 2 358 354 352 350 351 357 3 9 10 5 5 12 13 13 17 18 16 18 21 19 23 34 41 44 47 50 56 60 60 69 86 102 111 111 114 122 124 124 133 139 136 140 145 141 144 147 148
321 320 319 319 320 321 323 324 326 328 331 334 337 339 342 344 346 347 348 351 352 353 352 353 355 357 357 359 360 0 4 7 8 9 8 7 4 0 358 353 353 358 1 4 11 16 13 8 9 14 13 15 20 21 20 23 24 21 27 42 51 57 60 53 49 55 62 64 69 88 105 107 108 119 127 127 133 139 137 138 140 133 136 143 143
325 322 321 319 319 319 320 320 322 323 326 329 332 335 339 342 343 344 346 349 351 352 352 352 355 357 357 359 0 359 1 5 7 9 6 5 3 358 357 355 357 3 7 10 14 18 20 16 11 13 14 16 24 27 25 26 28 25 29 44 56 65 70 62 56 58 64 68 69 82 97 94 91 103 115 120 124 131 138 139 136 133 136 142 145
328 326 324 323 321 321 321 320 321 321 322 325 328 331 335 338 340 342 344 347 349 350 351 352 354 356 357 359 360 358 358 1 6 8 5 3 2 356 355 358 1 5 9 15 21 25 32 31 19 18 19 19 27 33 31 30 31 29 30 42 57 68 70 63 60 62 63 65 68 73 83 85 84 94 107 113 115 123 132 135 135 137 141 147 150
329 329 328 327 325 324 323 323 323 321 321 324 326 327 330 334 336 339 341 345 348 348 350 352 354 355 356 358 359 357 356 359 3 6 3 2 1 355 356 1 4 11 17 21 25 29 37 40 33 29 26 23 31 38 37 34 32 31 33 42 56 68 71 65 62 68 70 69 65 61 67 80 90 96 104 110 116 123 132 135 138 142 146 148 150
331 331 332 332 330 330 330 330 328 325 323 324 325 325 327 331 334 336 339 342 345 346 348 351 353 354 355 356 357 356 355 357 1 3 3 3 1 355 357 4 11 22 29 26 25 30 39 41 32 33 30 27 37 43 40 37 34 32 33 41 54 65 72 77 74 70 73 76 72 63 62 74 89 99 104 107 112 123 134 139 142 147 150 146 139
333 334 335 335 335 335 336 335 333 331 327 323 323 325 326 329 332 333 335 338 341 344 347 350 352 353 354 355 356 355 355 355 357 1 2 2 2 358 359 7 18 29 35 33 30 36 45 43 35 38 35 32 40 46 44 40 35 33 33 34 46 62 71 80 83 75 74 80 78 68 64 74 85 93 99 101 106 114 125 131 133 138 143 137 130
333 334 335 335 337 337 337 336 335 334 331 324 322 323 325 328 330 330 332 335 339 343 347 350 351 351 352 353 355 355 355 355 354 359 3 1 2 2 3 12 27 36 37 36 37 43 50 49 44 45 40 36 40 46 47 44 37 38 39 33 38 58 72 79 84 82 81 85 84 76 72 79 86 90 94 97 100 104 107 111 116 120 121 119 119
330 332 333 333 335 336 335 335 335 335 333 328 323 322 323 326 327 327 329 333 337 342 347 350 350 350 350 351 353 354 356 356 353 357 3 2 3 7 9 19 34 40 41 41 43 48 52 54 52 47 42 39 37 40 45 45 41 48 51 43 41 52 71 85 89 86 86 88 90 88 85 86 89 92 95 98 99 99 101 102 105 108 107 107 110
326 327 327 329 331 332 332 332 333 333 332 330 326 321 321 323 324 325 327 331 336 342 346 349 350 350 349 349 351 352 355 356 353 356 3 2 4 10 15 24 34 38 44 48 50 54 56 56 55 49 45 42 34 35 43 47 53 64 63 55 51 53 67 90 95 88 84 83 88 94 93 90 90 92 95 99 99 98 99 100 100 101 102 105 109
322 324 325 326 327 328 329 329 329 329 329 328 326 322 319 319 321 323 325 329 334 340 344 346 349 351 349 348 350 351 353 355 352 355 3 3 4 10 17 25 31 35 44 51 54 57 56 54 55 52 48 42 31 32 44 54 65 72 70 64 60 60 69 88 95 89 81 78 83 91 92 89 89 91 94 98 99 99 99 100 100 101 103 106 109
321 324 325 325 325 326 328 329 328 326 325 325 325 321 318 317 318 321 323 326 330 337 341 343 347 350 348 346 348 350 351 353 351 354 2 5 5 9 17 24 27 33 44 54 60 59 57 60 61 56 48 36 28 33 46 59 68 74 76 73 69 68 75 86 91 88 81 77 82 91 91 87 87 91 96 97 99 101 102 101 101 102 103 106 109
323 323 323 323 323 326 328 329 328 325 323 322 323 322 318 315 316 318 320 321 324 331 336 339 344 350 348 344 345 348 349 351 352 354 0 5 6 7 15 22 27 34 45 58 67 68 69 70 63 56 48 33 26 36 52 67 71 71 77 81 79 77 80 85 89 88 84 79 84 92 91 88 89 95 99 100 101 103 103 102 102 103 105 106 108
320 319 319 320 321 323 326 326 325 325 324 320 320 320 317 314 313 314 316 317 319 325 330 334 342 348 347 343 343 346 348 350 353 354 358 5 6 7 15 23 28 36 47 59 70 79 82 77 66 59 54 42 34 40 56 73 74 70 77 85 85 87 88 88 88 87 84 80 84 92 93 92 94 99 102 104 105 106 104 102 102 104 105 106 107
315 315 315 316 317 320 323 321 320 323 325 320 316 314 313 312 310 310 312 313 315 319 324 330 338 345 345 342 341 344 346 349 353 354 358 4 5 7 18 27 31 39 51 62 71 83 86 80 70 66 61 53 44 43 58 74 75 72 81 88 89 91 92 90 88 86 84 82 83 90 95 95 96 101 103 103 104 105 103 103 104 104 105 105 107
312 312 312 312 314 317 319 318 315 318 322 319 314 310 309 308 306 304 308 309 310 314 319 325 333 340 343 341 340 342 344 347 352 355 357 1 5 10 20 27 31 43 56 64 68 80 87 83 75 72 69 63 53 45 60 77 79 78 85 89 90 92 91 88 87 86 84 83 82 88 95 96 96 100 102 102 104 105 105 104 104 104 106 108 110
308 308 308 309 312 314 314 313 313 314 315 314 312 308 305 306 304 301 302 304 306 309 314 322 328 333 339 340 338 340 343 345 350 356 358 359 2 12 21 22 21 38 59 66 71 83 93 91 80 75 73 71 62 49 58 77 85 86 89 92 91 90 89 88 86 84 83 80 77 82 95 98 100 104 102 101 103 105 105 106 106 106 107 110 112
306 306 305 307 310 311 311 310 309 309 310 309 309 306 305 305 305 302 299 299 301 304 309 317 323 327 334 338 336 338 342 343 345 353 1 359 356 6 19 21 14 24 52 64 74 101 119 116 94 84 81 78 69 54 55 73 83 82 79 88 94 91 89 91 87 82 81 80 77 77 94 101 102 101 100 101 105 107 108 110 109 108 109 111 112
303 303 303 305 306 306 308 308 304 304 307 308 306 306 305 303 303 302 298 295 297 299 303 312 318 321 328 334 334 336 340 341 340 345 357 356 348 354 8 15 12 11 40 63 71 103 139 142 120 100 87 80 72 64 63 76 88 87 76 79 93 95 91 91 89 85 83 80 76 76 89 98 98 95 97 102 108 111 112 114 113 112 113 113 113
302 302 304 304 301 298 300 301 298 299 303 305 304 305 305 303 301 300 298 293 292 293 297 307 313 316 322 330 331 332 338 338 333 336 347 347 338 342 350 360 4 0 15 64 69 86 145 152 141 116 90 78 76 77 77 79 88 95 89 81 88 95 94 91 90 90 90 87 82 83 90 94 94 94 93 98 109 113 114 116 117 116 116 116 116
303 303 303 302 297 291 288 291 295 298 299 300 301 301 304 303 300 299 297 292 285 284 290 301 308 310 317 326 326 327 335 335 328 327 339 345 336 333 336 339 347 351 358 75 84 86 132 146 144 128 106 90 85 87 90 88 88 94 99 95 90 91 93 93 92 91 93 95 93 88 87 86 87 92 91 91 106 114 115 117 119 119 118 120 120
Height
3107 3106 3104 3103 3102 3101 3099 3098 3097 3096 3094 3093 3092 3090 3088 3087 3085 3083 3082 3080 3078 3076 3073 3071 3069 3067 3065 3062 3060 3058 3055 3052 3050 3047 3045 3043 3040 3037 3035 3032 3030 3028 3025 3022 3019 3017 3014 3010 3007 3004 3002 2999 2997 2996 2994 2992 2990 2989 2987 2985 2983 2982 2980 2979 2979 2978 2978 2978 2978 2979 2980 2981 2982 2984 2985 2987 2988 2990 2992 2994 2996 2999 3004 3009 3014
3106 3105 3104 3102 3101 3100 3099 3097 3096 3095 3093 3092 3091 3089 3087 3086 3084 3082 3080 3078 3076 3074 3072 3070 3068 3066 3063 3061 3059 3056 3054 3051 3048 3046 3044 3041 3039 3036 3033 3031 3029 3026 3023 3021 3018 3015 3012 3009 3005 3002 2999 2997 2995 2993 2991 2989 2987 2986 2984 2981 2979 2977 2976 2975 2974 2974 2974 2973 2974 2974 2975 2976 2977 2979 2980 2982 2984 2986 2988 2990 2992 2994 2999 3004 3009
3105 3104 3103 3102 3100 3099 3098 3096 3095 3094 3092 3091 3090 3088 3086 3084 3083 3081 3079 3077 3075 3073 3071 3069 3067 3064 3062 3060 3057 3055 3052 3050 3047 3045 3042 3040 3037 3035 3032 3029 3027 3024 3021 3019 3017 3014 3010 3007 3004 3001 2998 2994 2992 2990 2988 2986 2984 2982 2980 2978 2976 2974 2972 2971 2970 2970 2969 2969 2969 2969 2970 2972 2973 2974 2976 2977 2979 2982 2984 2986 2988 2990 2994 2999 3003
3104 3103 3102 3101 3100 3098 3097 3096 3094 3093 3092 3090 3088 3087 3085 3083 3081 3079 3077 3075 3073 3071 3069 3067 3065 3063 3061 3058 3056 3053 3051 3048 3046 3043 3041 3039 3036 3033 3031 3028 3025 3022 3019 3017 3015 3012 3009 3005 3002 2999 2996 2993 2990 2987 2985 2983 2981 2979 2977 2974 2972 2970 2968 2967 2966 2965 2965 2965 2965 2965 2965 2967 2968 2969 2971 2973 2975 2977 2980 2982 2984 2987 2989 2993 2998
3103 3103 3101 3100 3099 3098 3096 3095 3093 3092 3090 3089 3087 3086 3084 3082 3080 3078 3076 3074 3072 3070 3067 3066 3064 3061 3059 3057 3055 3052 3049 3047 3044 3042 3039 3037 3034 3032 3029 3026 3023 3021 3018 3015 3013 3011 3007 3004 3000 2997 2994 2991 2988 2985 2982 2980 2978 2976 2973 2971 2969 2967 2965 2964 2962 2961 2960 2960 2960 2960 2960 2961 2963 2964 2966 2968 2970 2973 2976 2978 2980 2983 2986 2989 2993
3103 3102 3101 3100 3098 3097 3095 3094 3092 3091 3089 3088 3086 3085 3083 3081 3079 3077 3075 3073 3070 3068 3066 3064 3062 3060 3058 3056 3053 3051 3048 3045 3043 3040 3038 3035 3032 3030 3027 3024 3021 3019 3016 3013 3011 3008 3005 3002 2999 2995 2992 2989 2986 2983 2980 2978 2976 2973 2970 2968 2966 2964 2962 2960 2958 2957 2956 2956 2955 2955 2956 2956 2958 2959 2961 2963 2965 2967 2970 2974 2977 2980 2982 2985 2989
3103 3102 3100 3099 3098 3096 3095 3093 3091 3090 3088 3087 3085 3083 3082 3079 3077 3076 3074 3071 3069 3066 3064 3062 3060 3058 3056 3054 3052 3049 3046 3044 3041 3039 3036 3033 3031 3028 3026 3023 3020 3017 3014 3011 3008 3006 3003 3000 2997 2994 2990 2987 2984 2981 2978 2975 2973 2971 2968 2965 2963 2961 2958 2956 2955 2953 2952 2951 2951 2951 2951 2952 2953 2955 2957 2960 2962 2963 2965 2969 2973 2976 2979 2981 2985
3102 3101 3100 3098 3097 3095 3094 3092 3091 3089 3087 3086 3084 3082 3080 3078 3076 3074 3072 3070 3067 3065 3063 3060 3059 3057 3054 3053 3050 3048 3045 3042 3040 3037 3035 3032 3029 3027 3024 3022 3019 3016 3013 3010 3007 3004 3002 2999 2995 2992 2988 2985 2982 2979 2976 2973 2971 2968 2966 2963 2961 2958 2955 2953 2951 2949 2948 2947 2947 2947 2947 2948 2949 2951 2953 2956 2959 2962 2964 2967 2969 2972 2975 2978 2981
3101 3100 3099 3097 3096 3095 3093 3092 3090 3089 3087 3085 3084 3081 3079 3077 3075 3072 3070 3068 3066 3064 3062 3059 3057 3055 3053 3051 3049 3046 3043 3041 3038 3036 3033 3031 3028 3026 3023 3021 3019 3016 3013 3010 3006 3003 3000 2997 2994 2990 2987 2983 2980 2977 2974 2971 2969 2967 2964 2962 2958 2956 2953 2951 2949 2946 2945 2944 2943 2943 2943 2944 2945 2946 2948 2950 2955 2959 2962 2965 2966 2968 2972 2975 2978
3101 3100 3098 3097 3096 3094 3093 3091 3090 3088 3086 3084 3083 3080 3078 3075 3073 3071 3069 3066 3064 3063 3061 3059 3056 3053 3051 3049 3047 3045 3042 3039 3036 3034 3031 3029 3027 3025 3022 3021 3019 3015 3012 3010 3006 3002 2999 2995 2992 2989 2985 2982 2978 2975 2972 2970 2967 2965 2963 2959 2956 2953 2950 2948 2946 2944 2943 2941 2940 2939 2939 2940 2941 2942 2944 2947 2950 2954 2958 2961 2963 2965 2968 2971 2975
3100 3099 3098 3097 3095 3094 3092 3091 3090 3088 3086 3084 3082 3079 3077 3074 3072 3070 3068 3066 3063 3061 3059 3058 3055 3052 3049 3047 3045 3043 3040 3037 3035 3033 3030 3027 3025 3023 3022 3020 3018 3015 3011 3009 3005 3001 2998 2994 2991 2987 2984 2980 2977 2974 2971 2968 2966 2963 2960 2957 2953 2951 2948 2946 2944 2943 2941 2939 2937 2936 2936 2937 2938 2940 2942 2945 2948 2952 2956 2959 2960 2962 2965 2969 2972
3100 3099 3098 3096 3095 3094 3092 3091 3089 3087 3085 3083 3081 3078 3076 3074 3072 3070 3068 3065 3063 3061 3058 3056 3053 3051 3048 3045 3043 3041 3038 3036 3033 3031 3028 3026 3024 3022 3021 3019 3017 3014 3011 3008 3005 3001 2997 2993 2989 2985 2982 2978 2975 2972 2969 2966 2964 2961 2958 2955 2951 2948 2947 2944 2942 2940 2939 2937 2935 2934 2934 2934 2936 2938 2941 2944 2946 2950 2954 2959 2960 2961 2962 2965 2969
3100 3099 3098 3096 3095 3094 3092 3091 3089 3087 3085 3083 3080 3078 3076 3074 3071 3069 3067 3065 3063 3060 3058 3055 3053 3050 3047 3044 3041 3039 3036 3034 3031 3029 3027 3024 3023 3021 3020 3018 3015 3013 3010 3007 3004 3000 2996 2992 2988 2984 2980 2977 2974 2971 2968 2965 2962 2959 2956 2953 2950 2947 2945 2942 2940 2938 2937 2935 2933 2932 2932 2933 2934 2936 2939 2942 2945 2948 2953 2957 2961 2962 2962 2963 2966
3100 3099 3098 3097 3095 3094 3093 3091 3089 3087 3085 3083 3080 3078 3076 3074 3071 3069 3067 3065 3062 3060 3058 3055 3052 3050 3047 3044 3041 3039 3036 3033 3030 3027 3025 3023 3021 3021 3019 3016 3014 3012 3009 3006 3003 2999 2995 2991 2987 2984 2980 2976 2973 2969 2966 2963 2960 2957 2954 2951 2949 2946 2944 2941 2938 2936 2934 2933 2932 2931 2931 2932 2933 2935 2937 2939 2942 2946 2951 2955 2959 2962 2963 2964 2965
3100 3099 3098 3097 3096 3094 3093 3091 3089 3087 3085 3083 3081 3078 3076 3073 3071 3069 3067 3064 3062 3059 3057 3055 3052 3050 3048 3045 3042 3039 3037 3034 3030 3026 3024 3022 3020 3019 3018 3015 3013 3010 3007 3005 3002 2998 2995 2991 2987 2983 2979 2975 2972 2969 2965 2962 2958 2955 2952 2950 2946 2943 2941 2939 2936 2934 2932 2931 2931 2930 2931 2932 2932 2933 2935 2938 2941 2944 2949 2953 2956 2958 2962 2966 2967
3101 3100 3099 3097 3096 3095 3093 3091 3089 3087 3085 3083 3081 3078 3076 3074 3071 3069 3066 3064 3061 3059 3056 3054 3052 3049 3047 3045 3043 3040 3037 3035 3031 3027 3024 3022 3020 3018 3016 3014 3011 3008 3005 3003 3000 2997 2993 2990 2986 2982 2979 2975 2971 2968 2964 2961 2957 2954 2951 2948 2944 2940 2938 2936 2934 2932 2931 2930 2929 2929 2930 2931 2932 2933 2934 2937 2940 2943 2948 2951 2954 2957 2960 2964 2967
3101 3100 3099 3098 3096 3095 3093 3091 3089 3087 3085 3083 3081 3078 3076 3074 3071 3069 3066 3064 3061 3058 3056 3053 3051 3048 3045 3043 3041 3039 3037 3034 3032 3028 3024 3021 3020 3017 3014 3012 3009 3007 3004 3001 2998 2995 2992 2989 2985 2982 2978 2974 2970 2967 2964 2960 2956 2953 2950 2947 2943 2939 2936 2934 2933 2931 2930 2929 2928 2928 2929 2930 2932 2933 2935 2937 2940 2943 2947 2950 2953 2956 2959 2961 2964
3102 3100 3099 3098 3096 3094 3093 3091 3089 3087 3085 3083 3081 3079 3076 3074 3071 3069 3066 3063 3060 3058 3055 3052 3050 3047 3044 3042 3039 3037 3035 3032 3031 3029 3025 3021 3018 3016 3013 3010 3008 3005 3002 2999 2996 2994 2991 2988 2985 2981 2978 2974 2970 2967 2963 2959 2955 2952 2949 2946 2942 2938 2935 2933 2932 2930 2929 2928 2927 2927 2928 2930 2931 2934 2935 2937 2940 2942 2945 2948 2951 2955 2958 2960 2962
3101 3100 3099 3097 3096 3094 3092 3091 3089 3087 3085 3083 3081 3079 3076 3074 3071 3069 3066 3063 3060 3057 3054 3052 3049 3046 3043 3040 3038 3035 3032 3029 3026 3025 3023 3020 3018 3015 3013 3010 3006 3004 3001 2998 2995 2993 2990 2987 2984 2981 2978 2974 2970 2966 2963 2959 2955 2952 2948 2945 2941 2937 2935 2932 2929 2928 2928 2927 2927 2927 2928 2929 2931 2933 2935 2937 2939 2942 2944 2947 2950 2953 2956 2959 2961
3101 3100 3099 3097 3096 3094 3092 3091 3089 3087 3085 3083 3081 3079 3076 3074 3072 3069 3066 3063 3060 3057 3054 3051 3049 3046 3043 3039 3036 3033 3030 3027 3024 3020 3018 3016 3015 3013 3012 3010 3006 3003 3000 2998 2995 2992 2990 2987 2984 2981 2978 2974 2970 2966 2962 2959 2955 2952 2948 2944 2941 2937 2934 2931 2927 2925 2926 2926 2926 2927 2928 2929 2930 2932 2935 2937 2939 2941 2943 2946 2948 2951 2953 2956 2960
3101 3100 3099 3097 3096 3094 3093 3091 3089 3087 3085 3083 3081 3079 3076 3074 3071 3068 3066 3063 3060 3057 3054 3051 3048 3045 3042 3039 3036 3033 3030 3027 3024 3021 3017 3014 3012 3011 3010 3009 3006 3004 3001 2998 2995 2992 2989 2987 2984 2981 2978 2974 2970 2966 2962 2958 2955 2952 2948 2944 2941 2937 2932 2929 2926 2924 2925 2926 2925 2926 2928 2929 2930 2932 2934 2936 2938 2940 2942 2944 2947 2950 2953 2957 2961
3101 3100 3099 3097 3096 3094 3093 3091 3089 3087 3085 3083 3081 3079 3076 3074 3071 3068 3065 3062 3060 3057 3054 3051 3048 3045 3042 3039 3036 3033 3030 3027 3024 3021 3018 3015 3012 3011 3009 3007 3005 3003 3000 2997 2994 2991 2989 2987 2984 2981 2978 2974 2971 2966 2962 2958 2955 2952 2948 2944 2941 2937 2932 2929 2926 2924 2924 2925 2926 2926 2927 2928 2930 2931 2933 2936 2938 2940 2942 2945 2947 2951 2955 2959 2962
3102 3101 3099 3098 3096 3095 3093 3091 3089 3087 3085 3083 3081 3079 3076 3073 3070 3068 3065 3062 3059 3056 3054 3051 3048 3045 3041 3038 3035 3032 3029 3026 3023 3020 3017 3015 3013 3011 3009 3006 3004 3001 2999 2996 2993 2991 2988 2986 2984 2981 2978 2975 2971 2967 2963 2959 2956 2952 2949 2945 2941 2938 2932 2928 2926 2925 2925 2926 2927 2927 2927 2928 2930 2931 2933 2935 2938 2940 2943 2945 2948 2952 2956 2960 2963
3102 3101 3099 3098 3097 3095 3093 3091 3089 3088 3086 3083 3081 3079 3076 3073 3070 3067 3065 3062 3059 3056 3053 3050 3047 3044 3041 3038 3035 3031 3028 3025 3022 3019 3016 3015 3013 3011 3008 3005 3003 3001 2999 2996 2993 2990 2988 2986 2984 2982 2978 2975 2971 2967 2963 2960 2956 2953 2950 2946 2943 2939 2932 2928 2928 2927 2928 2928 2928 2929 2929 2929 2931 2933 2934 2935 2937 2940 2943 2946 2949 2952 2955 2959 2963
3102 3101 3100 3098 3097 3095 3093 3091 3090 3088 3086 3083 3081 3078 3076 3073 3070 3067 3065 3062 3059 3056 3053 3050 3047 3043 3040 3037 3034 3031 3027 3024 3021 3018 3017 3015 3013 3011 3008 3005 3003 3000 2998 2995 2993 2991 2988 2986 2984 2982 2979 2976 2972 2968 2965 2961 2957 2954 2951 2947 2944 2940 2933 2930 2929 2929 2930 2930 2930 2932 2932 2931 2931 2933 2935 2936 2938 2940 2943 2946 2949 2952 2955 2958 2962
3102 3101 3100 3098 3097 3095 3093 3092 3090 3087 3085 3083 3081 3078 3076 3073 3070 3067 3065 3062 3059 3055 3052 3049 3046 3043 3040 3037 3033 3030 3027 3024 3021 3018 3017 3015 3013 3010 3008 3006 3003 3000 2998 2996 2993 2991 2989 2987 2985 2983 2980 2977 2973 2970 2966 2962 2959 2956 2953 2949 2946 2942 2937 2933 2932 2932 2932 2932 2932 2933 2933 2933 2933 2934 2936 2937 2939 2942 2944 2946 2948 2952 2955 2958 2962
3102 3101 3099 3098 3097 3095 3093 3091 3089 3087 3085 3083 3080 3078 3075 3073 3070 3067 3064 3062 3058 3055 3052 3049 3046 3042 3039 3036 3033 3029 3026 3023 3020 3018 3016 3014 3012 3010 3007 3004 3002 2999 2997 2996 2994 2992 2990 2988 2985 2983 2980 2977 2974 2971 2967 2964 2961 2958 2954 2951 2948 2945 2941 2937 2935 2935 2934 2933 2933 2934 2934 2935 2936 2936 2937 2939 2941 2944 2947 2947 2948 2952 2955 2958 2962
3101 3100 3099 3097 3096 3095 3093 3091 3089 3087 3085 3082 3080 3078 3075 3073 3070 3067 3064 3061 3058 3055 3052 3048 3045 3042 3039 3036 3033 3029 3025 3023 3020 3018 3016 3014 3012 3010 3007 3004 3002 2998 2996 2995 2994 2992 2991 2989 2986 2984 2981 2978 2975 2972 2968 2965 2962 2960 2957 2953 2950 2947 2944 2941 2939 2938 2936 2935 2935 2935 2935 2937 2937 2937 2937 2940 2943 2946 2948 2948 2949 2952 2955 2958 2961
3101 3099 3098 3097 3095 3094 3092 3090 3088 3086 3084 3082 3079 3077 3075 3072 3069 3066 3063 3060 3058 3055 3052 3048 3045 3042 3039 3036 3032 3029 3025 3023 3021 3019 3017 3014 3012 3009 3007 3005 3003 2999 2996 2995 2994 2993 2991 2989 2987 2985 2982 2980 2977 2973 2970 2967 2964 2962 2959 2956 2953 2950 2947 2945 2942 2941 2940 2937 2936 2936 2936 2937 2938 2939 2939 2942 2945 2947 2949 2949 2950 2954 2957 2959 2962
3100 3098 3097 3096 3094 3092 3091 3089 3087 3085 3083 3081 3079 3076 3074 3071 3069 3066 3063 3060 3057 3054 3051 3048 3045 3042 3038 3035 3032 3029 3026 3023 3021 3019 3017 3014 3012 3010 3007 3005 3003 3000 2997 2996 2995 2993 2992 2990 2988 2986 2984 2981 2978 2975 2972 2969 2966 2964 2962 2959 2956 2953 2951 2949 2946 2944 2943 2940 2937 2937 2938 2938 2939 2941 2941 2943 2946 2948 2950 2951 2952 2955 2958 2961 2965
3099 3098 3096 3094 3093 3091 3089 3087 3086 3084 3082 3080 3077 3075 3073 3071 3068 3065 3062 3060 3057 3054 3051 3048 3045 3041 3038 3035 3032 3029 3026 3023 3021 3019 3017 3014 3012 3010 3008 3006 3003 3001 2998 2996 2995 2993 2992 2991 2989 2987 2985 2983 2980 2977 2974 2971 2968 2966 2964 2962 2960 2957 2955 2952 2950 2948 2947 2945 2941 2939 2940 2941 2942 2943 2945 2946 2947 2948 2950 2952 2955 2957 2960 2963 2966
3098 3097 3095 3093 3092 3090 3088 3086 3084 3082 3081 3079 3077 3074 3072 3070 3067 3064 3062 3059 3056 3053 3050 3047 3044 3041 3038 3035 3032 3029 3027 3024 3022 3019 3017 3014 3012 3010 3008 3006 3003 3001 2998 2996 2995 2994 2993 2992 2990 2989 2987 2985 2982 2979 2976 2973 2970 2968 2966 2964 2963 2961 2958 2956 2954 2951 2950 2950 2947 2944 2945 2945 2943 2944 2946 2947 2947 2949 2952 2954 2956 2959 2962 2965 2968
3097 3096 3094 3092 3090 3089 3087 3085 3083 3081 3079 3077 3076 3074 3071 3069 3066 3064 3061 3058 3055 3053 3050 3047 3044 3041 3038 3035 3032 3030 3027 3025 3022 3019 3017 3015 3013 3010 3008 3006 3003 3001 2999 2997 2996 2995 2994 2993 2992 2990 2988 2986 2984 2981 2978 2975 2973 2971 2969 2967 2966 2964 2962 2960 2958 2956 2954 2953 2952 2951 2951 2950 2947 2946 2947 2948 2948 2950 2954 2957 2958 2961 2965 2968 2971
3096 3094 3093 3091 3089 3087 3085 3083 3081 3079 3077 3076 3074 3073 3070 3068 3065 3063 3060 3057 3055 3052 3049 3046 3043 3040 3037 3035 3032 3030 3027 3025 3022 3019 3017 3015 3013 3010 3008 3006 3004 3001 2999 2998 2996 2996 2995 2994 2993 2991 2990 2988 2986 2983 2979 2977 2975 2973 2972 2970 2969 2967 2965 2964 2962 2960 2958 2957 2955 2955 2954 2954 2954 2952 2951 2952 2953 2955 2958 2961 2962 2964 2967 2969 2972
3095 3093 3091 3090 3088 3086 3084 3082 3080 3077 3075 3074 3073 3071 3068 3066 3064 3062 3059 3057 3054 3051 3048 3046 3043 3040 3037 3034 3032 3030 3027 3025 3022 3020 3017 3015 3013 3011 3008 3006 3004 3002 3000 2998 2997 2996 2996 2995 2994 2992 2991 2989 2987 2984 2981 2979 2977 2975 2974 2973 2971 2970 2968 2967 2965 2964 2963 2961 2960 2959 2958 2957 2958 2958 2957 2957 2958 2960 2963 2964 2966 2968 2970 2971 2973
3093 3092 3090 3088 3086 3084 3082 3080 3078 3076 3074 3072 3071 3069 3067 3065 3063 3061 3058 3056 3053 3050 3047 3045 3042 3040 3037 3034 3032 3030 3027 3025 3023 3020 3018 3016 3013 3011 3008 3006 3005 3003 3001 2999 2998 2997 2996 2996 2994 2993 2992 2990 2988 2986 2983 2981 2980 2978 2976 2975 2974 2973 2971 2970 2969 2967 2966 2966 2965 2963 2963 2962 2962 2962 2962 2962 2963 2965 2967 2968 2969 2970 2972 2974 2975
3092 3091 3089 3087 3085 3083 3081 3079 3077 3074 3072 3070 3068 3067 3065 3064 3062 3060 3058 3055 3052 3050 3047 3044 3042 3040 3037 3034 3032 3030 3027 3025 3023 3020 3018 3016 3013 3011 3009 3007 3005 3003 3001 3000 2999 2998 2997 2997 2995 2994 2993 2992 2990 2988 2985 2984 2982 2980 2978 2977 2976 2975 2974 2973 2972 2971 2970 2970 2969 2968 2967 2967 2967 2966 2966 2966 2967 2969 2971 2972 2972 2974 2976 2976 2978
3091 3089 3087 3086 3084 3082 3080 3078 3075 3073 3070 3068 3066 3065 3064 3062 3060 3058 3057 3054 3052 3049 3046 3044 3041 3039 3037 3034 3032 3029 3027 3025 3023 3020 3018 3016 3014 3011 3009 3007 3006 3004 3002 3001 3000 2999 2999 2998 2996 2995 2995 2993 2992 2990 2988 2986 2984 2983 2981 2979 2978 2978 2977 2976 2975 2974 2973 2973 2973 2972 2971 2971 2970 2970 2970 2971 2972 2973 2974 2975 2976 2977 2978 2979 2980
3090 3088 3086 3084 3082 3080 3078 3076 3074 3071 3069 3067 3065 3063 3062 3060 3059 3057 3055 3053 3051 3049 3046 3043 3041 3039 3036 3034 3032 3029 3027 3025 3023 3021 3018 3016 3014 3012 3010 3008 3007 3005 3003 3002 3001 3000 3000 2999 2997 2997 2996 2995 2993 2991 2989 2988 2986 2985 2984 2982 2981 2980 2979 2978 2977 2976 2977 2977 2976 2976 2975 2975 2974 2974 2974 2975 2976 2976 2977 2978 2979 2980 2981 2982 2984
3088 3086 3084 3082 3080 3079 3076 3074 3072 3070 3068 3065 3063 3062 3060 3059 3057 3055 3054 3052 3050 3048 3045 3042 3040 3038 3036 3034 3031 3029 3027 3025 3023 3021 3018 3016 3014 3012 3011 3009 3008 3006 3004 3003 3002 3001 3000 2999 2999 2998 2997 2996 2994 2992 2990 2989 2988 2987 2985 2984 2983 2982 2982 2981 2980 2979 2979 2979 2979 2979 2979 2979 2978 2978 2978 2979 2979 2980 2981 2981 2982 2984 2985 2986 2987
3086 3085 3083 3081 3079 3077 3075 3073 3071 3069 3066 3064 3062 3060 3058 3057 3055 3054 3052 3050 3048 3046 3044 3042 3039 3037 3035 3033 3031 3029 3027 3025 3023 3021 3019 3017 3015 3013 3011 3010 3009 3007 3005 3004 3003 3002 3001 3000 3000 2999 2998 2997 2995 2993 2992 2990 2989 2988 2987 2987 2986 2985 2985 2984 2983 2982 2982 2983 2983 2982 2982 2982 2982 2982 2982 2982 2982 2983 2984 2985 2986 2987 2988 2990 2991
3085 3083 3081 3079 3077 3075 3073 3071 3069 3067 3065 3063 3060 3058 3057 3055 3054 3052 3051 3049 3047 3045 3043 3041 3038 3036 3034 3033 3031 3029 3027 3024 3023 3022 3019 3017 3015 3013 3012 3011 3009 3008 3006 3005 3004 3003 3002 3001 3001 3000 2999 2998 2997 2995 2993 2991 2991 2991 2990 2990 2989 2989 2988 2987 2986 2985 2985 2986 2987 2986 2984 2985 2986 2986 2986 2985 2986 2987 2988 2988 2989 2990 2991 2992 2993
3082 3081 3079 3077 3074 3072 3070 3069 3067 3065 3063 3061 3059 3057 3055 3053 3052 3050 3049 3047 3046 3043 3041 3039 3037 3035 3033 3032 3030 3028 3026 3024 3023 3021 3019 3017 3016 3014 3012 3011 3010 3009 3007 3006 3004 3004 3003 3003 3002 3001 3001 3000 2998 2996 2995 2993 2993 2994 2993 2992 2992 2991 2991 2990 2989 2988 2989 2990 2991 2989 2987 2988 2989 2989 2989 2989 2989 2990 2990 2991 2992 2993 2994 2995 2996
3080 3078 3076 3073 3071 3069 3067 3066 3064 3063 3061 3059 3057 3055 3053 3051 3050 3049 3047 3046 3044 3042 3040 3038 3036 3034 3033 3031 3029 3028 3026 3024 3022 3021 3019 3017 3016 3014 3012 3011 3011 3010 3008 3007 3005 3005 3004 3004 3003 3003 3002 3001 3000 2999 2997 2996 2995 2996 2995 2994 2994 2994 2994 2993 2992 2992 2992 2993 2994 2993 2990 2991 2993 2993 2992 2992 2992 2992 2992 2993 2994 2995 2996 2997 2999
3077 3075 3072 3070 3068 3067 3066 3064 3062 3060 3058 3057 3055 3053 3051 3049 3048 3047 3046 3044 3043 3041 3039 3037 3035 3033 3032 3030 3029 3027 3025 3023 3022 3020 3019 3017 3016 3014 3013 3012 3011 3010 3009 3008 3007 3006 3006 3005 3004 3004 3003 3003 3002 3001 2999 2998 2998 2998 2997 2996 2996 2996 2996 2996 2995 2995 2995 2996 2997 2996 2994 2994 2996 2996 2995 2995 2995 2995 2995 2996 2997 2998 2999 3000 3001
3073 3072 3069 3067 3065 3064 3063 3061 3059 3057 3055 3054 3052 3050 3048 3047 3046 3044 3043 3042 3041 3040 3038 3036 3034 3033 3031 3029 3028 3027 3025 3023 3021 3020 3019 3017 3016 3015 3013 3012 3012 3011 3010 3008 3007 3007 3007 3006 3006 3005 3005 3004 3004 3003 3001 3000 3000 3000 2999 2999 2999 2999 2999 2998 2998 2998 2998 2998 2999 2999 2997 2997 2998 2998 2997 2997 2998 2998 2998 2999 3000 3001 3002 3003 3003
3070 3068 3066 3064 3062 3061 3059 3057 3056 3054 3052 3050 3048 3047 3046 3044 3043 3042 3041 3040 3039 3038 3037 3035 3033 3032 3030 3028 3027 3026 3024 3022 3021 3020 3018 3017 3016 3015 3013 3013 3012 3011 3010 3009 3008 3008 3008 3007 3007 3006 3006 3005 3005 3005 3003 3002 3002 3002 3001 3001 3001 3001 3001 3001 3001 3000 3000 3000 3001 3001 3000 2999 3000 3000 2999 2999 3000 3000 3000 3001 3002 3004 3005 3005 3006
3067 3065 3063 3061 3060 3058 3056 3054 3052 3051 3050 3048 3046 3044 3043 3042 3040 3039 3038 3038 3037 3036 3035 3034 3032 3031 3029 3028 3026 3025 3024 3022 3020 3019 3018 3017 3016 3015 3014 3013 3012 3012 3010 3009 3009 3009 3008 3008 3008 3007 3006 3006 3006 3006 3005 3005 3004 3004 3004 3003 3003 3003 3003 3003 3003 3003 3003 3002 3003 3003 3002 3002 3002 3002 3001 3002 3003 3002 3003 3004 3005 3006 3007 3007 3008
3064 3062 3060 3059 3057 3054 3053 3051 3049 3048 3047 3045 3043 3042 3041 3039 3037 3036 3035 3035 3035 3034 3033 3032 3031 3030 3029 3027 3025 3024 3023 3021 3020 3019 3018 3017 3016 3015 3014 3013 3012 3012 3011 3010 3009 3009 3009 3009 3008 3008 3008 3007 3007 3007 3007 3006 3005 3005 3005 3005 3005 3004 3005 3005 3005 3005 3005 3005 3005 3005 3005 3004 3005 3005 3004 3004 3005 3005 3005 3006 3007 3008 3009 3010 3010
3060 3059 3057 3055 3052 3050 3049 3047 3045 3044 3044 3042 3040 3039 3038 3036 3035 3033 3033 3033 3033 3032 3032 3031 3030 3029 3028 3026 3024 3023 3022 3021 3019 3018 3017 3016 3016 3015 3014 3013 3012 3012 3011 3010 3010 3009 3009 3009 3009 3009 3009 3008 3008 3008 3008 3008 3007 3006 3007 3007 3007 3006 3006 3007 3007 3007 3008 3008 3007 3007 3007 3006 3007 3007 3007 3007 3007 3007 3008 3008 3009 3010 3011 3012 3013
3055 3054 3053 3050 3048 3046 3045 3043 3041 3040 3040 3039 3038 3037 3036 3034 3032 3031 3031 3030 3030 3030 3030 3029 3028 3027 3026 3025 3024 3022 3021 3020 3019 3018 3017 3016 3015 3015 3014 3013 3012 3011 3011 3010 3010 3010 3010 3010 3010 3010 3009 3009 3010 3009 3009 3009 3009 3008 3008 3008 3008 3009 3009 3009 3009 3009 3010 3010 3010 3009 3009 3009 3009 3010 3010 3010 3010 3010 3010 3011 3011 3012 3013 3014 3015